Flag for Comoros Weather past 2 weeks in Mutsamudu, Comoros

Now
84 °F

Scattered clouds.


Feels Like: 92 °F
Forecast: 75 / 83 °F
Wind: 3 mph from West

Location: Dzaoudzi / Pamanzi Mayotte

Current Time: Mar 27, 2015 at 1:17:23 PM

Latest Report: Mar 27, 2015 at 12:30 PM


Visibility: N/A

Pressure: 29.92 "Hg

Humidity: 74%

Dew point: 75 °F

Location of MutsamuduLocation

Historic Weather in Mutsamudu — Graph

°F

Mutsamudu temperature yesterday

Maximum temperature yesterday: 88 °F (at 10:00 AM)
Minimum temperature yesterday: 79 °F (at 2:30 AM)
Average temperature yesterday: 84 °F

Past Weeks' High & Low Weather Summary

 TemperatureHumidityPressure
High90 °F (Mar 16, 11:34 AM)94% (Mar 13, 5:30 AM)30.01 "Hg (Mar 13, 5:30 AM)
Low75 °F (Mar 21, 8:04 AM)62% (Mar 13, 3:30 PM)29.86 "Hg (Mar 12, 2:00 PM)
Average83 °F78%29.91 "Hg
* Reported Mar 12 12:00 Noon — Mar 27 12:00 Noon, Mutsamudu, Weather by CustomWeather, © 2015

Note: Actual official high and low records may vary slightly from our data, if they occured in-between our weather recording intervals... More about our weather records

Advertising

Mutsamudu weather history for previous 24 hours

 ConditionsComfort  
Time TempWeatherWind HumidityBarometerVisibility
12:00 PM
Fri, Mar 27
86 °FScattered clouds.3 mph70%29.92 "HgN/A
11:30 AM88 °FScattered clouds.6 mph66%29.92 "HgN/A
11:00 AM86 °FScattered clouds.6 mph70%29.95 "HgN/A
10:30 AM86 °FScattered clouds.5 mph70%29.95 "HgN/A
10:00 AM86 °FScattered clouds.1 mph75%29.95 "HgN/A
9:30 AM86 °FScattered clouds.5 mph70%29.95 "HgN/A
9:00 AM86 °FScattered clouds.3 mph75%29.98 "HgN/A
8:30 AM86 °FScattered clouds.5 mph75%29.95 "HgN/A
7:30 AM82 °FScattered clouds.3 mph84%29.95 "HgN/A
7:00 AM79 °FScattered clouds.No wind94%29.95 "HgN/A
6:00 AM77 °FPassing clouds.2 mph94%29.92 "HgN/A
5:30 AM77 °FPassing clouds.No wind94%29.92 "HgN/A
5:00 AM79 °FPassing clouds.2 mph89%29.89 "HgN/A
4:30 AM79 °FWarm.3 mph89%29.89 "HgN/A
4:00 AM77 °FWarm.2 mph94%29.89 "HgN/A
3:30 AM79 °FWarm.1 mph89%29.89 "HgN/A
3:00 AM79 °FWarm.2 mph89%29.89 "HgN/A
2:30 AM79 °FWarm.2 mph89%29.89 "HgN/A
2:00 AM81 °FWarm.1 mph84%29.89 "HgN/A
1:30 AM81 °FWarm.2 mph89%29.89 "HgN/A
1:00 AM81 °FWarm.2 mph89%29.92 "HgN/A
12:30 AM81 °FWarm.3 mph89%29.92 "HgN/A
12:00 AM81 °FWarm.3 mph89%29.95 "HgN/A
11:30 PM
Thu, Mar 26
81 °FWarm.2 mph89%29.95 "HgN/A
11:00 PM82 °FWarm.2 mph84%29.95 "HgN/A
10:30 PM82 °FWarm.5 mph84%29.95 "HgN/A
10:00 PM82 °FWarm.5 mph84%29.95 "HgN/A
9:30 PM82 °FWarm.2 mph84%29.95 "HgN/A
9:00 PM82 °FWarm.2 mph84%29.95 "HgN/A
8:30 PM82 °FPassing clouds.No wind79%29.95 "HgN/A
8:00 PM82 °FPassing clouds.1 mph79%29.95 "HgN/A
7:30 PM82 °FWarm.3 mph79%29.95 "HgN/A
7:00 PM82 °FWarm.3 mph79%29.92 "HgN/A
6:30 PM84 °FWarm.3 mph74%29.92 "HgN/A
6:00 PM84 °FScattered clouds.3 mph74%29.92 "HgN/A
5:30 PM86 °FPassing clouds.3 mph70%29.92 "HgN/A
5:00 PM88 °FScattered clouds.5 mph66%29.89 "HgN/A
4:30 PM88 °FScattered clouds.5 mph66%29.89 "HgN/A
4:00 PM88 °FScattered showers. Scattered clouds.1 mph66%29.89 "HgN/A
3:30 PM88 °FPassing clouds.3 mph70%29.89 "HgN/A
3:00 PM88 °FScattered showers. Scattered clouds.3 mph66%29.89 "HgN/A
2:30 PM88 °FScattered clouds.3 mph66%29.89 "HgN/A
2:00 PM88 °FScattered clouds.7 mph70%29.89 "HgN/A
1:30 PM88 °FScattered showers. Passing clouds.7 mph66%29.92 "HgN/A
1:00 PM88 °FScattered showers. Passing clouds.7 mph66%29.92 "HgN/A
Weather by CustomWeather, © 2015

See weather overviewHow to use our weather pages